SL-12 R/B(2)

基本信息
目录编号:
25900
目录名称:
SL-12 R/B(2)
国际标识:
1999-047E
轨道中心:
EARTH
物体状态:
在轨
发射日期:
1999-09-06 UTC
国别:
俄罗斯(独联体) (CIS)
轨道信息
数据来源: 国际轨道数据
星历时间: 2026-07-14T04:06:03+0800
半长轴: 42201.605km
偏心率: 0.0102137
轨道倾角: 14.521°
近地点辐角: 63.716°
升交点赤经: 358.986°
平近点角: 126.378°
近地点: 35392.433km
远地点: 36254.503km
周期: 1437.981分钟
每日圈数: 1.001404
详细信息
发射场:
TTMTR
轨道高度:
MEO
数据来源:
AOE Integration Group
参考系:
TEME
时间系统:
UTC
历元类型:
SGP4
2D轨道图
3D轨道图
轨道高度分析图
轨道倾角分析图
轨道综合分析图
查看轨道综合分析图